AirNav   Everest Fuels
 
 1065 users online  

1S9 Chewelah Municipal Airport
Chewelah, Washington, USA

GOING TO CHEWELAH?


FAA INFORMATION EFFECTIVE 18 JUNE 2020

Location

FAA Identifier: 1S9
Lat/Long: 48-18-50.6890N 117-44-36.2050W
48-18.844817N 117-44.603417W
48.3140803,-117.7433903
(estimated)
Elevation: 2084 ft. / 635 m (estimated)
Variation: 20E (1985)
Time zone: UTC -7 (UTC -8 during Standard Time)
Zip code: 99109

Airport Operations

Airport use: Open to the public
Activation date: 01/1979
Control tower: no
ARTCC: SEATTLE CENTER
FSS: SEATTLE FLIGHT SERVICE STATION
NOTAMs facility: SEA (NOTAM-D service available)
Attendance: UNATNDD
Wind indicator: lighted
Segmented circle: yes
Lights: ACTVT MIRL RY 17/35 - CTAF. PAPI RY 17 AND RY 35 OPER CONTINUOUSLY.
Beacon: white-green (lighted land airport)
Operates sunset to sunrise.

Airport Communications

CTAF: 122.9
WX AWOS-3 at 63S (15 nm N): 119.275 (509-684-8994)

Nearby radio navigation aids

NDB name  Hdg/Dist  Freq  Var  ID
DEER PARK313/24.436516EDPY -.. .--. -.--
IONE188/27.137921EION .. --- -.

Airport Services

Parking: tiedowns
Airframe service: MINOR
Powerplant service: MINOR
Bottled oxygen: NONE
Bulk oxygen: NONE

Runway Information

Runway 17/35

Dimensions: 3446 x 48 ft. / 1050 x 15 m
Surface: asphalt, in good condition
Runway edge lights: medium intensity
Runway edge markings: MARKINGS FADED.
RUNWAY 17  RUNWAY 35
Latitude: 48-19.124150N48-18.565467N
Longitude: 117-44.531783W117-44.675067W
Traffic pattern: rightleft
Displaced threshold: 230 ft.101 ft.
Markings: basic, in poor conditionbasic, in poor condition
Visual slope indicator: 2-light PAPI on right (4.00 degrees glide path)2-light PAPI on left (3.00 degrees glide path)
Obstructions: 11 ft. tree, 275 ft. from runway, 63 ft. right of centerline, 6:1 slope to clear
3 FT DITCH +1 FT TO +3 FT ROCKS & RD 56 FT FM THR; 77 FT L, +14 FT TREES 200 FT FM THR, AND 10 FT SIGN, 86 FT R, 53 FT FM THR.
none

Airport Ownership and Management from official FAA records

Ownership: Publicly-owned
Owner: CITY OF CHEWELAH
PO BOX 258
CHEWELAH, WA 99109
Phone 509-935-8311
Manager: TYRONE BRYANT
139 RICHMOND LANE
CHEWELAH, WA 99109
Phone (509) 936-0234

Airport Operational Statistics

Aircraft based on the field: 17
Single engine airplanes: 16
Multi engine airplanes: 1
    
Aircraft operations: avg 96/week *
60% local general aviation
40% transient general aviation
* for 12-month period ending 31 December 2018

Additional Remarks

ALL PATTERNS TO THE WEST.
DEER & WILDLIFE ON & INVOF ARPT.
FOR CD CTC SEATTLE ARTCC AT 253-351-3694.
LODGING & FOOD AVBL AT APRT.

Instrument Procedures

There are no published instrument procedures at 1S9.

Some nearby airports with instrument procedures:

KDEW - Deer Park Airport (24 nm SE)
KSFF - Felts Field Airport (41 nm SE)
KSKA - Fairchild Air Force Base (42 nm S)
KGEG - Spokane International Airport (43 nm S)
KSZT - Sandpoint Airport (47 nm E)
 
Loc | Ops | Rwys | IFR | FBO | Links
Com | Nav | Svcs | Stats | Notes
Area around 1S9 (Chewelah Municipal Airport)
 
Road maps at: MapQuest Bing Google
 
Aerial photo
WARNING: Photo may not be current or correct
Aerial photo of 1S9 (Chewelah Municipal Airport)
Photo by P.J. Reinders
Taken in September 2008

Do you have a better or more recent aerial photo of Chewelah Municipal Airport that you would like to share? If so, please send us your photo.

 
Sectional chart

 
Airport distance calculator
Flying to Chewelah Municipal Airport? Find the distance to fly.

From to 1S9

Sunrise and sunset
Times for 09-Jul-2020
 Local
(UTC-7)
 Zulu
(UTC)
Morning civil twilight04:2211:22
Sunrise05:0212:02
Sunset20:5103:51
Evening civil twilight21:3104:31

Current date and time
Zulu (UTC)  09-Jul-2020 23:49:34
Local (UTC-7)  09-Jul-2020 16:49:34
 
METAR
KDEW 
24nm SE 
092253Z AUTO 22004KT 10SM FEW080 25/07 A2992 RMK AO2 SLP123 T02500067
KSFF 
42nm SE 
092253Z 18009KT 10SM BKN085 27/06 A2991 RMK AO2 SLP116 T02670061
KSKA 
42nm S 
092302Z AUTO 21013G18KT 10SM SCT085 27/04 A2992 RMK AO2 WSHFT 00 SLP125 $
KGEG 
43nm S 
092253Z 24007KT 200V290 10SM SCT085 SCT130 BKN250 26/06 A2991 RMK AO2 SLP116 T02610056
KSZT 
47nm E 
092335Z AUTO 13003KT 10SM CLR 23/07 A2992 RMK AO2
TAF
KSFF 
42nm SE 
091720Z 0918/1018 22007KT P6SM BKN200 FM100400 VRB04KT P6SM SCT100 BKN200 FM101400 20008KT P6SM SKC
KSKA 
42nm S 
091900Z 0919/1101 22012G18KT 9999 FEW045 FEW080 SCT180 QNH2990INS BECMG 1005/1006 20009KT 9999 BKN080 BKN180 QNH2991INS BECMG 1017/1018 22012G20KT 9999 FEW045 FEW180 QNH3014INS TX25/0923Z TN11/1012Z
KGEG 
43nm S 
092118Z 0921/1018 22010G17KT P6SM BKN200 FM100500 19005KT P6SM BKN100 OVC250 FM101200 18008KT P6SM BKN100 FM101400 20009KT P6SM FEW250
KCOE 
50nm SE 
091720Z 0918/1018 VRB05KT P6SM SCT250 FM091900 22007KT P6SM BKN200 FM100600 15005KT P6SM BKN100 FM101200 18005KT P6SM SKC
NOTAMs
Click for the latest NOTAMs
NOTAMs are issued by the DoD/FAA and will open in a separate window not controlled by AirNav.

 

 
 

Would you like to see your business listed on this page?

 If your business provides an interesting product or service to pilots, flight crews, aircraft, or users of the Chewelah Municipal Airport, you should consider listing it here.  To start the listing process, click on the button below
 
Add a business
 

Other Pages about Chewelah Municipal Airport

Update a link
 
Copyright © AirNav, LLC. All rights reserved. Privacy Policy  Contact